Regional Weather Roundup
Issued by NWS Grand Forks, ND

Home | Current Version | Previous Version | Graphics & Text | Print | Product List | Glossary On
Versions: 1 2 3 4 5 6 7 8 9 10 11 12 13 14 15 16 17 18 19 20 21 22 23 24 25 26 27 28 29 30 31 32 33 34 35 36 37 38 39 40 41 42 43 44 45 46 47 48 49 50
221
ASUS43 KFGF 181831
RWRFGF
PRAIRIE TO PINES  WEATHER ROUNDUP
NATIONAL WEATHER SERVICE EASTERN NORTH DAKOTA/GRAND FORKS ND
1200 PM CST SAT NOV 18 2017

 **SATELLITE DATA USED TO AUGMENT SKY COVER AT AUTOMATED STATIONS**
 *****  WEATHER ACROSS EASTERN NORTH DAKOTA  *****

CITY           SKY/WX    TMP DP  RH WIND       PRES   REMARKS
GRAND FORKS    PTSUNNY   20  11  68 NW16      30.03S WCI   6
6HR MIN TEMP:  16; 6HR MAX TEMP:  20;

GRAND FRKS AFB CLOUDY    19   9  63 NW16      30.03S WCI   5
GRAND FRKS NWS   N/A     19 N/A N/A NW20        N/A  WCI   4
DEVILS LAKE    FAIR      16   8  71 NW22      30.02S WCI  -2
6HR MIN TEMP:  12; 6HR MAX TEMP:  16;

FARGO          CLOUDY    22  11  62 NW22      30.04R WCI   6
WAHPETON ARPT  NOT AVBL
$$

 ***** WEATHER ACROSS CENTRAL AND WESTERN NORTH DAKOTA  *****

CITY           SKY/WX    TMP DP  RH WIND       PRES   REMARKS
BISMARCK       FAIR      29  18  63 NW10      30.13S WCI  20
6HR MIN TEMP:  20; 6HR MAX TEMP:  27;

MINOT          FAIR      21   8  57 W17       30.08F WCI   7
6HR MIN TEMP:  15; 6HR MAX TEMP:  21; 6HR PCP: TRACE;

JAMESTOWN      FAIR      21  10  62 NW20G29   30.05R WCI   6
6HR MIN TEMP:  15; 6HR MAX TEMP:  21;

MINOT AFB      FAIR      19   8  61 NW17G23   30.06F WCI   4
GARRISON         N/A     21  14  74 NW17      30.08F WCI   7
WILLISTON      FAIR      24  11  57 NW8       30.12F WCI  15
6HR MIN TEMP:  12; 6HR MAX TEMP:  25;

DICKINSON      FAIR      24  15  68 W12       30.08F WCI  13
6HR MIN TEMP:  11; 6HR MAX TEMP:  24;

HETTINGER      FAIR      28  15  58 W16       30.11F WCI  16
6HR MIN TEMP:  13; 6HR MAX TEMP:  28;

$$

 *****  OTHER AIRPORT OBSERVATIONS IN OUR AREA  *****

CITY           SKY/WX    TMP DP  RH WIND       PRES   REMARKS
WALHALLA       FAIR      18   7  62 NW13G21   30.01R WCI   4
GRAFTON AIRPOR FAIR      16   9  73 NW15      30.04S WCI   1
VALLEY CITY AR FLURRIES  19  10  68 NW20G29   30.06S WCI   4
CANDO          FAIR      18   7  62 W18       30.04S WCI   2
CAVALIER APRT  FAIR      16   7  67 NW15G23   30.00F WCI   1
GWINNER          N/A     27  12  54 NW20      30.05S WCI  13
ROLLA          FAIR      16   3  57 NW17      29.99F WCI   0
 ***** THE ABOVE OBSERVATIONS ARE NON NWS ARE NOT QUALITY
       CONTROLLED AND MAY MIS-REPORT RAIN FOR SNOW...
$$

  *****  WEATHER ACROSS NORTHERN MINNESOTA  *****

CITY           SKY/WX    TMP DP  RH WIND       PRES   REMARKS
FLAG ISLAND    LGT SNOW  16  10  79 NW18      29.88F WCI  -1
WARROAD        LGT SNOW  16  10  79 NW10      29.93S WCI   3
ROSEAU         LGT SNOW  18  10  73 W13       29.94R WCI   4
HALLOCK        FAIR      18  10  73 NW14      29.99F WCI   4
THF RVR FALLS  FLURRIES  16  11  80 NW15      29.98S WCI   1
6HR MIN TEMP:  14; 6HR MAX TEMP:  17; 6HR PCP: TRACE;

BAUDETTE       FLURRIES  16  10  77 W14       29.90R WCI   2
6HR MIN TEMP:  15; 6HR MAX TEMP:  19; 6HR PCP: TRACE;

WASKISH        FLURRIES  19  14  79 W13       29.90S WCI   7
CROOKSTON      FLURRIES  18  10  73 NW16G22   30.03R WCI   3
STEPHEN NDAWN    N/A     16  10  79 NW12        N/A  WCI   3
GREENBUSH NDAW   N/A     16   9  73 NW15        N/A  WCI   1
$$
  *****  WEATHER ACROSS CENTRAL AND WEST MINNESOTA  *****

CITY           SKY/WX    TMP DP  RH WIND       PRES   REMARKS
FOSSTON        LGT SNOW  16  10  79 NW13G20   29.97R WCI   2
BEMIDJI        FLURRIES  20  12  73 NW20      29.90F WCI   4
6HR MIN TEMP:  14; 6HR MAX TEMP:  20;

PARK RAPIDS    CLOUDY    21  13  71 NW18G25   29.91R WCI   6
6HR MIN TEMP:  18; 6HR MAX TEMP:  22;

ELBOW LAKE     FAIR      24  15  69 W18G26    29.99S WCI  10
WADENA         FAIR      21  14  73 NW16G22   29.93R WCI   7
DETROIT LAKES  PTSUNNY   21  14  73 NW17      29.97S WCI   7
MOORHEAD       LGT RAIN  21  12  68 NW17G24   30.04S WCI   7
FERGUS FALLS   FAIR      25  14  63 NW21G28   30.02S WCI  10
MORRIS MN      FAIR      27  16  63 NW22G32   29.98R WCI  12
STAPLES        CLOUDY    23  14  68 NW16      29.92R WCI  10
$$
  *****  WEATHER ELSEWHERE ACROSS MINNESOTA  *****

CITY           SKY/WX    TMP DP  RH WIND       PRES   REMARKS
DULUTH         PTSUNNY   25  17  72 NW16G25   29.76R WCI  12
6HR MIN TEMP:  21; 6HR MAX TEMP:  25;

INTRNTL FALLS  CLOUDY    22  13  68 W14       29.84S WCI   9
6HR MIN TEMP:  14; 6HR MAX TEMP:  22; 6HR PCP:  0.01;

ELY            CLOUDY    25  16  68 NW9G18    29.76S WCI  15
CLOQUET        FAIR      27  16  63 NW18G25   29.79R WCI  13
WHEATON        FAIR      28  14  54 NW18G25   30.04S WCI  16
BRAINERD       FAIR      29  15  56 NW13G23   29.87R WCI  19
6HR MIN TEMP:  22; 6HR MAX TEMP:  29;

HIBBING        CLOUDY    21  15  78 NW14      29.81F WCI   8
6HR MIN TEMP:  14; 6HR MAX TEMP:  21; 6HR PCP: TRACE;

ALEXANDRIA     FAIR      25  16  68 NW17G25   29.94R WCI  12
6HR MIN TEMP:  21; 6HR MAX TEMP:  26;

SAINT CLOUD    FAIR      30  19  63 NW20G25   29.87R WCI  17
6HR MIN TEMP:  26; 6HR MAX TEMP:  31;

MINNEAPOLIS    FAIR      36  23  59 NW18G25   29.82S
6HR MIN TEMP:  31; 6HR MAX TEMP:  36;

$$

  *****  WEATHER ACROSS SOUTH DAKOTA  *****

CITY           SKY/WX    TMP DP  RH WIND       PRES   REMARKS
SIOUX FALLS    FAIR      38  24  57 NW24G32   30.01R
6HR MIN TEMP:  28; 6HR MAX TEMP:  38;

BROOKINGS      FAIR      30  19  63 NW23G29   29.99S WCI  17
WATERTOWN      FAIR      28  17  63 NW21      30.00S WCI  15
6HR MIN TEMP:  21; 6HR MAX TEMP:  28;

HURON          FAIR      30  16  56 NW22G29   30.10R WCI  17
6HR MIN TEMP:  19; 6HR MAX TEMP:  31;

SISSETON         N/A     28  14  55 NW26      30.02S WCI  13
ABERDEEN       FAIR      31  14  49 NW18      30.09S WCI  19
6HR MIN TEMP:  17; 6HR MAX TEMP:  31;

MITCHELL       FAIR      34  19  54 NW26      30.10R WCI  21
PIERRE         FAIR      31  21  66 NW18      30.14S WCI  19
6HR MIN TEMP:  29; 6HR MAX TEMP:  33;

MOBRIDGE       FAIR      29  16  58 NW17      30.10F WCI  17
RAPID CITY     FAIR      44  18  35 NW22G35   30.15S
6HR MIN TEMP:  32; 6HR MAX TEMP:  44;

$$

  *****  SOME WEATHER IN NEARBY STATES *****

CITY           SKY/WX    TMP DP  RH WIND       PRES   REMARKS
GLASGOW MT     FAIR      24  15  68 SW5       30.10S WCI  18
6HR MIN TEMP:   8; 6HR MAX TEMP:  25;

GREAT FALLS MT FAIR      40  18  41 SW28G36   30.12S
6HR MIN TEMP:  32; 6HR MAX TEMP:  41;

CHEYENNE WY    FAIR      33  14  45 NW16G25   30.22R WCI  23
6HR MIN TEMP:  21; 6HR MAX TEMP:  33;

SCOTTSBLUFF NE FAIR      42  16  34 W18G26    30.25R
6HR MIN TEMP:  25; 6HR MAX TEMP:  42;

OMAHA NE       FAIR      45  32  60 N23G35    29.97R
6HR MIN TEMP:  37; 6HR MAX TEMP:  46;

DES MOINES IA  PTSUNNY   42  31  64 NW18      29.83R
6HR MIN TEMP:  38; 6HR MAX TEMP:  43; 6HR PCP:  0.02;

DAVENPORT IA   CLOUDY    39  37  92 N14       29.67R
6HR MIN TEMP:  37; 6HR MAX TEMP:  40; 6HR PCP:  0.20;

CHICAGO IL     LGT SNOW  35  33  92 N16       29.47R FOG
6HR MIN TEMP:  37; 6HR MAX TEMP:  44; 6HR PCP:  0.36;

EAU CLAIRE WI  PTSUNNY   38  29  70 NW9       29.74R
6HR MIN TEMP:  34; 6HR MAX TEMP:  38;

LA CROSSE WI   FAIR      42  32  67 N13       29.72R
6HR MIN TEMP:  37; 6HR MAX TEMP:  41;

$$

  *****  SOME NATIONAL WEATHER *****

CITY           SKY/WX    TMP DP  RH WIND       PRES   REMARKS
LA GUARDIA NY  PTSUNNY   50  34  54 S14G22    29.77F
6HR MIN TEMP:  39; 6HR MAX TEMP:  50;

RALEIGH NC     PTSUNNY   65  43  44 SW21G28   29.86F
6HR MIN TEMP:  39; 6HR MAX TEMP:  65;

ATLANTA GA     PTSUNNY   65  55  70 S14       29.88F
6HR MIN TEMP:  46; 6HR MAX TEMP:  66;

NEW ORLEANS LA PTSUNNY   83  65  54 SW14      29.88F
6HR MIN TEMP:  67; 6HR MAX TEMP:  83;

OKLAHOMA CITY  PTSUNNY   50  37  61 N36G43    30.10R
6HR MIN TEMP:  49; 6HR MAX TEMP:  56;

ALBUQUERQUE NM FAIR      44   3  18 N10       30.36S
6HR MIN TEMP:  36; 6HR MAX TEMP:  44;

SALT LAKE CITY FAIR      38  24  57 SE8       30.47R
6HR MIN TEMP:  30; 6HR MAX TEMP:  38;

LOS ANGELES CA FAIR      70  55  59 VRB5      30.16S
6HR MIN TEMP:  55; 6HR



USA.gov is the U.S. government's official web portal to all federal, state and local government web resources and services.